Location: Caracas
(10.5000°N, 66.9170°W)
Time: 03:48:30
(UTC-04:00)

N. Korean satellite - Visible Passes

Search period start: 25 February 2018 00:00
Search period end: 07 March 2018 00:00
Orbit: 459 x 514 km, 97.2° (Epoch: 24 February)

Date Brightness Start Highest point End Pass type
(mag) Time Alt. Az. Time Alt. Az. Time Alt. Az.
25 Feb 10.0 06:11:38 10° NE 06:14:22 19° E 06:17:06 10° SSE visible
26 Feb 9.4 19:14:49 10° SSW 19:17:30 22° W 19:20:13 10° NW visible
01 Mar 10.0 06:10:10 10° NE 06:12:51 19° E 06:15:31 10° SE visible
02 Mar 9.3 19:13:09 10° SSW 19:15:55 23° W 19:18:42 10° NW visible
05 Mar 10.0 06:08:41 10° NE 06:11:16 18° E 06:13:50 10° SE visible
06 Mar 9.2 19:11:26 10° SSW 19:14:17 24° W 19:17:09 10° NW visible
